Hurlburt Field, FL

4:57 AM CDT on August 17, 2017 (GMT -0500)
Hurlburt

Weather History for KHRT - September, 2012

Change the Weather History Date:

Friday, September 7, 2012

  Actual Average Record
Temperature  
Mean Temperature 78 °F -  
Max Temperature 86 °F 85 °F 91 °F (2015)
Min Temperature 71 °F 70 °F 57 °F (2011)
Cooling Degree Days 14    
Growing Degree Days 28 (Base 50)    
Moisture  
Dew Point 75 °F    
Average Humidity 82    
Maximum Humidity 100    
Minimum Humidity 69    
Precipitation  
Precipitation 0.00 in - - ()
Sea Level Pressure  
Sea Level Pressure 29.92 in    
Wind  
Wind Speed 4 mph (SE)    
Max Wind Speed 13 mph    
Max Gust Speed -    
Visibility 10 miles    
Events Rain    
Averages and records for this station are not official NWS values.
T = Trace of Precipitation, MM = Missing Value Source: NWS Daily Summary

Daily Weather History Graph

Daily Weather History Graph

Search for Another Location

Airport or City:

Trip Planner

Search our weather history database for the weather conditions in past years. The results will help you decide how hot, cold, wet, or windy it might be!

Date:

Astronomy

Sep. 07, 2012 Rise Set
Actual Time 6:27 AM CDT 7:01 PM CDT
Civil Twilight 6:02 AM CDT 7:25 PM CDT
Nautical Twilight 5:34 AM CDT 7:54 PM CDT
Astronomical Twilight 5:05 AM CDT 8:23 PM CDT
Moon 11:26 PM CDT (9/7) 12:48 PM CDT (9/7)
Length of Visible Light 13h 23m
Length of Day
12h 34m
Waning Gibbous, 58% of the Moon is Illuminated
Sep 7
Waning Gibbous
Sep 8
Last Quarter
Sep 15
New
Sep 22
First Quarter
Sep 29
Full

Hourly Weather History & Observations

Time (CDT) Temp. Heat Index Dew Point Humidity Pressure Visibility Wind Dir Wind Speed Gust Speed Precip Events Conditions
12:55 AM 79.7 °F - 74.5 °F 84% 29.92 in 10.0 mi Calm Calm - N/A   Partly Cloudy
1:55 AM 75.4 °F - 73.9 °F 95% 29.92 in 10.0 mi Calm Calm - N/A   Partly Cloudy
2:55 AM 75.2 °F - 73.4 °F 94% 29.91 in 10.0 mi Calm Calm - N/A   Clear
3:55 AM 73.4 °F - 72.5 °F 97% 29.91 in 10.0 mi Calm Calm - N/A   Clear
4:55 AM 73.0 °F - 72.5 °F 98% 29.91 in 10.0 mi Calm Calm - N/A   Clear
5:55 AM 72.5 °F - 72.0 °F 98% 29.92 in 10.0 mi Calm Calm - N/A   Clear
6:24 AM 71.6 °F - 71.6 °F 100% 29.93 in 10.0 mi Calm Calm - N/A   Light Drizzle
6:37 AM 71.6 °F - 71.6 °F 100% 29.93 in 10.0 mi North 3.5 mph - N/A   Clear
6:55 AM 72.7 °F - 72.1 °F 98% 29.93 in 10.0 mi Calm Calm - 0.00 in   Partly Cloudy
7:55 AM 77.4 °F - 75.6 °F 94% 29.94 in 10.0 mi North 3.5 mph - N/A   Clear
8:38 AM 80.6 °F 87.1 °F 77.0 °F 89% 29.95 in 10.0 mi ENE 5.8 mph - N/A Rain Light Rain
8:55 AM 82.0 °F 89.7 °F 76.3 °F 83% 29.95 in 10.0 mi NE 4.6 mph - 0.00 in   Clear
9:27 AM 82.4 °F 89.5 °F 75.2 °F 79% 29.95 in 10.0 mi ENE 6.9 mph - N/A   Mostly Cloudy
9:55 AM 84.7 °F 93.6 °F 75.6 °F 74% 29.96 in 10.0 mi SE 6.9 mph - N/A   Mostly Cloudy
10:19 AM 84.2 °F 94.1 °F 77.0 °F 79% 29.97 in 10.0 mi SE 6.9 mph - N/A Rain Light Rain
10:29 AM 86.0 °F 96.9 °F 77.0 °F 74% 29.97 in 10.0 mi East 5.8 mph - N/A   Overcast
10:34 AM 86.0 °F 96.9 °F 77.0 °F 74% 29.97 in 10.0 mi SE 4.6 mph - N/A Rain Light Rain
10:36 AM 84.2 °F 94.1 °F 77.0 °F 79% 29.97 in 10.0 mi ESE 5.8 mph - N/A   Overcast
10:42 AM 84.2 °F 94.1 °F 77.0 °F 79% 29.97 in 10.0 mi SE 5.8 mph - N/A Rain Light Rain
10:44 AM 84.2 °F 94.1 °F 77.0 °F 79% 29.97 in 10.0 mi Variable 5.8 mph - N/A   Overcast
10:55 AM 85.1 °F 94.9 °F 76.3 °F 75% 29.97 in 10.0 mi SE 9.2 mph - 0.00 in   Mostly Cloudy
11:11 AM 86.0 °F 96.9 °F 77.0 °F 74% 29.96 in 10.0 mi SE 10.4 mph - N/A   Scattered Clouds
11:24 AM 86.0 °F 96.9 °F 77.0 °F 74% 29.96 in 10.0 mi SE 9.2 mph - N/A   Mostly Cloudy
11:47 AM 86.0 °F 96.9 °F 77.0 °F 74% 29.96 in 10.0 mi SE 10.4 mph - N/A   Scattered Clouds
11:49 AM 86.0 °F 96.9 °F 77.0 °F 74% 29.96 in 10.0 mi SE 9.2 mph - N/A Rain Light Rain
11:50 AM 86.0 °F 96.9 °F 77.0 °F 74% 29.96 in 10.0 mi SE 10.4 mph - N/A   Scattered Clouds
11:55 AM 85.3 °F 95.8 °F 76.8 °F 76% 29.96 in 10.0 mi SE 9.2 mph - 0.00 in   Partly Cloudy
11:56 AM 86.0 °F 96.9 °F 77.0 °F 74% 29.96 in 10.0 mi SE 10.4 mph - N/A Rain Light Rain
12:06 PM 86.0 °F 96.9 °F 77.0 °F 74% 29.96 in 10.0 mi SSE 9.2 mph - N/A   Partly Cloudy
12:55 PM 85.6 °F 94.6 °F 75.4 °F 71% 29.94 in 10.0 mi SE 8.1 mph - 0.00 in   Clear
1:55 PM 85.5 °F 94.2 °F 75.2 °F 71% 29.92 in 10.0 mi SE 9.2 mph - N/A   Clear
2:55 PM 85.8 °F 94.2 °F 74.5 °F 69% 29.90 in 10.0 mi South 11.5 mph - N/A   Clear
3:55 PM 84.9 °F 93.3 °F 75.0 °F 72% 29.88 in 10.0 mi South 12.7 mph - N/A   Clear
4:55 PM 84.6 °F 93.2 °F 75.4 °F 74% 29.87 in 10.0 mi SSE 11.5 mph - N/A   Clear
5:55 PM 83.3 °F 91.4 °F 75.7 °F 78% 29.88 in 10.0 mi SE 9.2 mph - N/A   Scattered Clouds
6:55 PM 82.2 °F 89.3 °F 75.6 °F 80% 29.87 in 10.0 mi SE 8.1 mph - N/A   Partly Cloudy
7:55 PM 81.5 °F 88.0 °F 75.6 °F 82% 29.86 in 10.0 mi SSE 6.9 mph - N/A   Partly Cloudy
8:55 PM 81.5 °F 87.6 °F 74.8 °F 80% 29.86 in 10.0 mi SSE 8.1 mph - N/A   Clear
9:55 PM 81.5 °F 88.0 °F 75.4 °F 82% 29.86 in 10.0 mi SE 4.6 mph - N/A   Clear
10:41 PM 80.6 °F 86.2 °F 75.2 °F 84% 29.86 in 10.0 mi SSE 8.1 mph - N/A   Mostly Cloudy
10:43 PM 80.6 °F 86.2 °F 75.2 °F 84% 29.85 in 10.0 mi SSE 9.2 mph - N/A   Scattered Clouds
10:55 PM 81.1 °F 87.6 °F 75.9 °F 84% 29.85 in 10.0 mi SE 6.9 mph - N/A   Scattered Clouds
11:53 PM 80.6 °F 86.2 °F 75.2 °F 84% 29.83 in 10.0 mi South 8.1 mph - N/A   Mostly Cloudy
11:55 PM 80.8 °F 86.9 °F 75.9 °F 85% 29.83 in 10.0 mi South 8.1 mph - N/A   Mostly Cloudy